This demonstration page uses our WeatherBlox Daily Observations layout. Learn more.

Left ArrowRight Arrow

34.02893, -84.19858

Hourly Observations for March 17, 2022

Temp ( °F °C ) Dew Point ( °F °C ) Humidity (%) Winds ( mph kmh ) Pressure ( in mb ) Visibility ( mi km ) Precip ( " mm )
12:01 am 00:01 Cloudy 54 12.2 53 11.7 97 97 VRB 3 6 29.97 1015 8 13 0.00 0.00
12:26 am 00:26 Cloudy 54 12.2 53 11.7 97 97 Calm 29.96 1015 8 13 0.00 0.00
12:53 am 00:53 Cloudy 54 12.2 53 11.7 97 97 Calm 29.96 1015 9 14 0.00 0.00
1:05 am 01:05 Cloudy 54 12.2 53 11.7 97 97 Calm 29.96 1015 8 13 0.00 0.00
1:53 am 01:53 Cloudy 54 12.2 53 11.7 97 97 Calm 29.96 1014 10 16 0.00 0.00
2:02 am 02:02 Cloudy 54 12.2 53 11.7 97 97 Calm 29.96 1015 10 16 0.00 0.00
2:53 am 02:53 Cloudy 54 12.2 53 11.7 97 97 Calm 29.95 1014 9 14 0.00 0.00
3:53 am 03:53 Cloudy 54 12.2 52 11.1 93 93 WSW 5 7 29.95 1014 9 14 0.00 0.00
4:53 am 04:53 Cloudy 54 12.2 52 11.1 93 93 NW 3 6 29.96 1015 10 16 0.00 0.00
5:02 am 05:02 Cloudy 54 12.2 52 11.1 93 93 NW 3 6 29.96 1015 10 16 0.00 0.00
5:53 am 05:53 Cloudy 54 12.2 52 11.1 93 93 Calm 29.95 1014 10 16 0.00 0.00
6:53 am 06:53 Partly Cloudy 51 10.6 50 10 96 96 W 5 7 29.97 1015 7 11 0.00 0.00
7:45 am 07:45 Sunny with Mist and Fog 49 9.4 49 9.4 100 100 Calm 29.99 1016 2 3 0.00 0.00
7:53 am 07:53 Sunny with Mist and Fog 49 9.4 49 9.4 100 100 Calm 29.99 1016 1 2 0.00 0.00
7:56 am 07:56 Sunny with Fog 49 9.4 49 9.4 100 100 Calm 30.00 1016 1 1 0.00 0.00
8:05 am 08:05 Mostly Cloudy with Fog 49 9.4 49 9.4 100 100 SSW 3 6 30.00 1016 0 0 0.00 0.00
8:08 am 08:08 Mostly Cloudy with Fog 48 8.9 48 8.9 100 100 SSW 5 7 30.02 1016 N/A 0.00 0.00
8:51 am 08:51 Mostly Cloudy with Fog 50 10 50 10 100 100 WSW 5 7 30.03 1017 0 0 0.00 0.00
8:53 am 08:53 Mostly Cloudy with Fog 50 10 50 10 100 100 WSW 3 6 30.02 1017 0 0 0.00 0.00
9:53 am 09:53 Cloudy with Fog 51 10.6 51 10.6 100 100 W 3 6 30.04 1017 0 0 0.00 0.00
9:56 am 09:56 Cloudy with Mist and Fog 51 10.6 50 10 96 96 W 5 7 30.04 1017 5 8 0.00 0.00
10:31 am 10:31 Cloudy 53 11.7 51 10.6 93 93 Calm 30.04 1017 7 11 0.00 0.00
10:53 am 10:53 Partly Cloudy 56 13.3 52 11.1 87 87 VRB 3 6 30.04 1017 9 14 0.00 0.00
11:08 am 11:08 Mostly Cloudy 56 13.3 52 11.1 87 87 Calm 30.04 1017 10 16 0.00 0.00
11:18 am 11:18 Partly Cloudy 57 13.9 53 11.7 87 87 VRB 3 6 30.04 1017 10 16 0.00 0.00
11:53 am 11:53 Sunny 59 15 52 11.1 78 78 Calm 30.03 1017 10 16 0.00 0.00
12:53 pm 12:53 Sunny 64 17.8 53 11.7 68 68 VRB 3 6 30.02 1017 10 16 0.00 0.00
1:53 pm 13:53 Sunny 67 19.4 51 10.6 57 57 VRB 5 7 30.01 1016 10 16 0.00 0.00
2:53 pm 14:53 Sunny 69 20.6 51 10.6 53 53 VRB 5 7 29.97 1015 10 16 0.00 0.00
3:53 pm 15:53 Sunny 71 21.7 51 10.6 49 49 VRB 7 11 29.95 1014 10 16 0.00 0.00
4:53 pm 16:53 Sunny 71 21.7 51 10.6 49 49 VRB 6 9 29.94 1014 10 16 0.00 0.00
5:53 pm 17:53 Sunny 71 21.7 50 10 47 47 WSW 3 6 29.95 1014 10 16 0.00 0.00
6:53 pm 18:53 Sunny 71 21.7 50 10 47 47 W 3 6 29.96 1015 10 16 0.00 0.00
7:53 pm 19:53 Clear 66 18.9 50 10 56 56 S 3 6 29.97 1015 10 16 0.00 0.00
8:53 pm 20:53 Clear 62 16.7 51 10.6 67 67 Calm 29.99 1016 10 16 0.00 0.00
9:53 pm 21:53 Clear 57 13.9 51 10.6 81 81 Calm 30.01 1016 10 16 0.00 0.00
10:53 pm 22:53 Clear 55 12.8 51 10.6 87 87 Calm 30.00 1016 10 16 0.00 0.00
11:53 pm 23:53 Clear 53 11.7 50 10 89 89 Calm 30.02 1017 10 16 0.00 0.00

Powered by AerisWeather